History for DABS

Tebessa, Algeria

Daily Weekly Monthly
Daily Summary for Thursday, August 21, 2014
  Actual: Average: Record:
Temperature
Mean Temperature: 82 °F / 28 °C - :  
Max Temperature: 96 °F / 36 °C 86 °F / 30 °C - ()
Min Temperature: 69 °F / 20 °C 58 °F / 15 °C - ()
Cooling Degree Days 18    
Growing Degree Days 32 (Base 50)    
Moisture
Dew Point 66 °F / 19 °C    
Average Humidity 62    
Maximum Humidity 83    
Minimum Humidity 28    
Precipitation
Precipitation 0.00 in / 0.0 cm 0.04 in / 0.9 cm - ()
Sea Level Pressure
Sea Level Pressure 30.08 in / 1018.54 hPa   
Wind
Wind Speed 4 mph / 7 km/h ()  
Max Wind Speed 14 mph / 22 km/h   
Max Gust Speed -   
Visibility 5.1 miles / 8.2 kilometers   
Events     

Key: T is trace of precipitation, MM is missing value
Source: Averaged Metar Reports

Graphs

Observations

History Graphs Observations

Obs Go Here...

Features

Weather Apps

WunderRadio

Weather Underground Apps
Check out our wide variety of mobile and setup applications.

Weather Underground Applications

Top of Page

Copyright© 2014
Weather Underground, Inc.
Time(CET)TemperatureDew PointHumidity Sea Level Pressure Visibility Wind DirectionWind SpeedGust SpeedPrecipitationEvents Conditions
12:00 AM 80.6 °F / 27.0 °C 64.4 °F / 18.0 °C 58% 30.06 in / 1018 hPa 6.2 miles / 10.0 kilometers West 11.5 mph / 18.5 km/h - N/A   Partly Cloudy
12:30 AM 80.6 °F / 27.0 °C 64.4 °F / 18.0 °C 58% 30.06 in / 1018 hPa 6.2 miles / 10.0 kilometers West 13.8 mph / 22.2 km/h - N/A   Partly Cloudy
1:00 AM 77 °F / 25 °C 65 °F / 18 °C 58%  in /  hPa 6 miles / 10 kilometers West 11.5 mph / 18.5 km/h - -   Scattered Clouds
1:00 AM 77.0 °F / 25.0 °C 64.4 °F / 18.0 °C 65% 30.09 in / 1019 hPa 6.2 miles / 10.0 kilometers West 11.5 mph / 18.5 km/h - N/A   Partly Cloudy
1:30 AM 77.0 °F / 25.0 °C 64.4 °F / 18.0 °C 65% 30.09 in / 1019 hPa - West 4.6 mph / 7.4 km/h - N/A   Clear
2:00 AM 75.2 °F / 24.0 °C 64.4 °F / 18.0 °C 69% 30.09 in / 1019 hPa - Calm Calm - N/A   Clear
4:00 AM 72 °F / 22 °C 65 °F / 18 °C 72%  in /  hPa 6 miles / 10 kilometers Calm Calm - -   Scattered Clouds
4:00 AM 71.6 °F / 22.0 °C 64.4 °F / 18.0 °C 78% 30.06 in / 1018 hPa - Calm Calm - N/A   Clear
4:30 AM 71.6 °F / 22.0 °C 64.4 °F / 18.0 °C 78% 30.09 in / 1019 hPa - Calm Calm - N/A   Clear
5:00 AM 71.6 °F / 22.0 °C 66.2 °F / 19.0 °C 83% 30.06 in / 1018 hPa - West 2.3 mph / 3.7 km/h - N/A   Clear
5:30 AM 71.6 °F / 22.0 °C 64.4 °F / 18.0 °C 78% 30.06 in / 1018 hPa - Calm Calm - N/A   Clear
6:00 AM 71.6 °F / 22.0 °C 64.4 °F / 18.0 °C 78% 30.06 in / 1018 hPa - Calm Calm - N/A   Clear
6:30 AM 71.6 °F / 22.0 °C 66.2 °F / 19.0 °C 83% 30.06 in / 1018 hPa 3.7 miles / 6.0 kilometers Calm Calm - N/A   Unknown
7:00 AM 71 °F / 22 °C 67 °F / 19 °C 82%  in /  hPa 3 miles / 5 kilometers Calm Calm - -   Scattered Clouds
7:00 AM 71.6 °F / 22.0 °C 66.2 °F / 19.0 °C 83% 30.09 in / 1019 hPa 3.1 miles / 5.0 kilometers Calm Calm - N/A   Scattered Clouds
8:00 AM 73.4 °F / 23.0 °C 68.0 °F / 20.0 °C 83% 30.09 in / 1019 hPa 3.1 miles / 5.0 kilometers Calm Calm - N/A   Scattered Clouds
8:30 AM 77.0 °F / 25.0 °C 68.0 °F / 20.0 °C 74% 30.09 in / 1019 hPa 3.7 miles / 6.0 kilometers Calm Calm - N/A   Scattered Clouds
9:00 AM 78.8 °F / 26.0 °C 64.4 °F / 18.0 °C 61% 30.09 in / 1019 hPa 5.0 miles / 8.0 kilometers Calm Calm - N/A   Partly Cloudy
9:30 AM 80.6 °F / 27.0 °C 64.4 °F / 18.0 °C 58% 30.09 in / 1019 hPa 5.0 miles / 8.0 kilometers Calm Calm - N/A   Partly Cloudy
10:00 AM 82 °F / 28 °C 69 °F / 21 °C 57%  in /  hPa 5 miles / 8 kilometers Calm Calm - -   Scattered Clouds
10:00 AM 82.4 °F / 28.0 °C 69.8 °F / 21.0 °C 66% 30.09 in / 1019 hPa 5.0 miles / 8.0 kilometers Calm Calm - N/A   Partly Cloudy
10:30 AM 86.0 °F / 30.0 °C 68.0 °F / 20.0 °C 55% 30.09 in / 1019 hPa 5.0 miles / 8.0 kilometers Calm Calm - N/A   Partly Cloudy
11:00 AM 86.0 °F / 30.0 °C 68.0 °F / 20.0 °C 55% 30.09 in / 1019 hPa 5.0 miles / 8.0 kilometers ESE 4.6 mph / 7.4 km/h - N/A   Partly Cloudy
11:30 AM 87.8 °F / 31.0 °C 68.0 °F / 20.0 °C 52% 30.09 in / 1019 hPa - ENE 4.6 mph / 7.4 km/h - N/A   Clear
12:00 PM 87.8 °F / 31.0 °C 68.0 °F / 20.0 °C 52% 30.09 in / 1019 hPa - East 6.9 mph / 11.1 km/h - N/A   Clear
12:30 PM 89.6 °F / 32.0 °C 66.2 °F / 19.0 °C 46% 30.09 in / 1019 hPa - Calm Calm - N/A   Clear
1:00 PM 94 °F / 34 °C 65 °F / 18 °C 28%  in /  hPa 6 miles / 10 kilometers West 4.6 mph / 7.4 km/h - -   Scattered Clouds
1:00 PM 95.0 °F / 35.0 °C 66.2 °F / 19.0 °C 39% 30.09 in / 1019 hPa - West 4.6 mph / 7.4 km/h - N/A   Clear
1:30 PM 96.8 °F / 36.0 °C 64.4 °F / 18.0 °C 34% 30.06 in / 1018 hPa 6.2 miles / 10.0 kilometers SSE 4.6 mph / 7.4 km/h - N/A   Scattered Clouds
2:00 PM 96.8 °F / 36.0 °C 64.4 °F / 18.0 °C 34% 30.04 in / 1017 hPa 6.2 miles / 10.0 kilometers East 4.6 mph / 7.4 km/h - N/A   Scattered Clouds
2:30 PM 96.8 °F / 36.0 °C 64.4 °F / 18.0 °C 34% 30.04 in / 1017 hPa 6.2 miles / 10.0 kilometers East 6.9 mph / 11.1 km/h - N/A   Scattered Clouds